Location: Colonia Mina de C?rbuni
(46.1667°N, 22.7167°E)
Time: 05:46:12
(UTC+00:00)

Vanguard 3 - Pass Details

Date: 19 April 2024
Orbit: 509 x 3232 km, 33.3° (Epoch: 29 May)

Event Time Altitude Azimuth Distance (km) Brightness Sun altitude
Exits shadow 00:22:03 13° 162° (SSE) 4,839 10.7 -27.1°
Maximum altitude 00:24:41 14° 150° (SSE) 4,553 10.7 -26.9°
Drops below altitude 10° 00:30:04 10° 124° (SE) 4,364 10.8 -26.4°
Sets 00:35:15 0° 101° (E) 4,789 11.4 -25.9°
